Location: East Arcadia
(34.1056°N, 118.0176°W)
Time: 00:30:34
(UTC+00:00)

Cosmos 405 Rocket - Pass Details

Date: 01 April 2023
Orbit: 474 x 533 km, 81.3° (Epoch: 08 June)

Event Time Altitude Azimuth Distance (km) Brightness Sun altitude
Exits shadow 11:26:35 30° 87° (E) 876 4.3 -27.2°
Drops below altitude 10° 11:29:35 10° 31° (NNE) 1,650 6.0 -26.6°
Enters shadow 12:33:43 -52° 194° (SSW) 10,673 9.3 -14.2°
Sets 13:06:45 0° 342° (NNW) 2,538 6.1 -7.5°
